www.pogodaiklimat.ru

Погода и климат >> Архив погоды >> Россия >> Краснодарский край >> Магри


ПОГОДА в Магри

  • Прогноз погоды в Магри
  • Монитор погоды в Магри

АРХИВ ПОГОДЫ в Магри

Время (UTC), дата Ветер
(напр.,м/с)
 
Видим.   Явления Облачность Т
(С)
Тd
(С)
f
(%)
Тe
(С)
Тes
(С)
Комфортность P
(гПа)
Po
(гПа)
Тmin
(С)
Tmax
(С)
R
(мм)
R24
(мм)
S
(см)
06 15.08 штиль 0 н/о н/о +28.2 +18.9 57 +33 +33 очень
душно
1008.5 1002.7
09 15.08 С 1 н/о н/о +30.6 +17.0 44 +34 +34 очень
душно
1007.9 1002.2
12 15.08 С 2 н/о н/о +30.7 +16.8 43 +34 +34 очень
душно
1007.2 1001.5
15 15.08 СЗ 1 н/о н/о +28.6 +16.0 46 +32 +32 душно 1006.7 1000.9 +31.6
18 15.08 штиль 0 н/о н/о +21.3 +18.3 83 +26 +26 душно 1008.1 1002.1
21 15.08 штиль 0 н/о н/о +21.0 +21.0 100 +26 +26 душно 1008.3 1002.4
00 16.08 штиль 0 н/о н/о +20.8 +20.5 98 +25 +25 комфорт 1009.2 1003.2
03 16.08 С 1 н/о н/о +21.1 +21.0 99 +26 +26 душно 1008.4 1002.5 +20.4
06 16.08 ЮВ 1 н/о н/о +28.7 +20.6 62 +36 +36 очень
душно
1007.7 1001.9
09 16.08 С 1 н/о н/о +27.6 +22.3 73 +36 +36 очень
душно
1008.7 1002.8
12 16.08 З 1 н/о н/о +28.9 +22.3 68 +38 +38 очень
душно
1006.1 1000.3
15 16.08 ЮВ 2 н/о н/о +27.0 +21.7 73 +35 +35 очень
душно
1008.7 1002.9 +30.1
18 16.08 штиль 0 н/о н/о +23.0 +22.8 99 +32 +32 очень
душно
1008.6 1002.7
21 16.08 штиль 0 н/о н/о +22.3 +22.3 100 +30 +30 очень
душно
1008.8 1002.9
00 17.08 СЗ 1
{12}
н/о н/о +21.4 +21.3 99 +27 +27 душно 1009.5 1003.6
03 17.08 штиль 0 н/о н/о +21.1 +19.8 92 +26 +26 душно 1009.5 1003.5 +20.5 25
06 17.08 штиль 0 н/о н/о +22.3 +21.9 98 +30 +30 очень
душно
1010.7 1004.8
09 17.08 СВ 1 н/о н/о +25.5 +18.6 66 +30 +30 душно 1011.6 1005.7
12 17.08 Ю 1 н/о н/о +25.8 +18.8 65 +31 +31 очень
душно
1011.6 1005.7
15 17.08 СЗ 1 н/о н/о +24.4 +19.8 76 +30 +30 очень
душно
1011.2 1005.2 +27.0 0.3
18 17.08 штиль 0 н/о н/о +20.7 +20.7 100 +25 +25 комфорт 1011.4 1005.4
21 17.08 штиль 0 н/о н/о +21.1 +20.3 95 +26 +26 душно 1010.5 1004.5
00 18.08 С 1 н/о н/о +21.3 +20.2 93 +26 +26 душно 1010.3 1004.3
03 18.08 СЗ 2 н/о н/о +21.7 +18.4 82 +26 +26 душно 1009.6 1003.7 +20.2
06 18.08 СЗ 1 н/о н/о +24.9 +18.0 66 +29 +29 душно 1009.4 1003.5
09 18.08 штиль 0 н/о н/о +23.3 +19.4 79 +30 +30 очень
душно
1009.7 1003.8
12 18.08 ЮВ 1 н/о н/о +25.9 +20.0 70 +32 +32 очень
душно
1010.7 1004.8
15 18.08 СЗ 1 н/о н/о +25.5 +20.1 72 +31 +31 очень
душно
1011.6 1005.7 +27.5
18 18.08 штиль 0 н/о н/о +22.4 +22.1 98 +30 +30 очень
душно
1013.8 1007.8
21 18.08 штиль 0 н/о н/о +21.6 +21.6 100 +28 +28 очень
душно
1013.9 1007.9
00 19.08 штиль 0 н/о н/о +21.3 +21.3 100 +27 +27 душно 1014.2 1008.2
03 19.08 СЗ 1 н/о н/о +19.9 +19.9 100 +24 +24 комфорт 1015.8 1009.8 +19.8 5
06 19.08 СЗ 1 н/о н/о +21.8 +21.8 100 +28 +28 душно 1015.9 1009.9
09 19.08 штиль 0 н/о н/о +27.5 +19.5 62 +33 +33 очень
душно
1016.1 1010.2
12 19.08 ЮВ 1 н/о н/о +26.6 +20.4 69 +33 +33 очень
душно
1015.9 1010.0
15 19.08 СЗ 1 н/о н/о +26.0 +21.3 75 +33 +33 очень
душно
1015.2 1009.3 +28.0 0.5
18 19.08 штиль 0 н/о н/о +21.6 +21.6 100 +28 +28 очень
душно
1016.3 1010.3
21 19.08 штиль 0 н/о н/о +21.1 +21.1 100 +26 +26 душно 1017.3 1011.3
00 20.08 СЗ 1 н/о н/о +20.5 +20.5 100 +26 +26 душно 1016.6 1010.6
03 20.08 штиль 0 н/о н/о +20.4 +20.4 100 +24 +24 комфорт 1017.0 1011.0 +20.4
06 20.08 штиль 0 н/о н/о +26.2 +23.5 85 +36 +36 очень
душно
1017.3 1011.4
09 20.08 штиль 0 н/о н/о +26.1 +23.4 85 +35 +35 очень
душно
1017.3 1011.4
12 20.08 Ю 1 н/о н/о +27.2 +23.1 78 +36 +36 очень
душно
1016.7 1010.8
15 20.08 штиль 0 н/о н/о +26.4 +20.8 71 +33 +33 очень
душно
1016.5 1010.6 +27.8
18 20.08 СЗ 1 н/о н/о +22.8 +22.5 98 +31 +31 очень
душно
1017.1 1011.2
21 20.08 штиль 0 н/о н/о +21.6 +21.6 100 +28 +28 очень
душно
1017.4 1011.4
00 21.08 СЗ 1 н/о н/о +20.7 +20.7 100 +27 +27 душно 1016.4 1010.4
03 21.08 штиль 0 н/о н/о +20.6 +20.6 100 +25 +25 комфорт 1016.0 1010.0 +20.6
06 21.08 СЗ 1 н/о н/о +26.8 +23.0 80 +36 +36 очень
душно
1015.2 1009.3 +20.5

 

Местоположение метеостанции Магри (Краснодарский край, Россия): широта 44.02 долгота 39.16 высота над уровнем моря 32 м.

В архиве по умолчанию представлена погода в Магри за последнюю неделю. Архивные данные за месяц целиком и за предыдущие месяцы, начиная с января 2011 года, Вы можете получить, выбрав интересующий диапазон дат из раскрывающегося списка и нажав кнопку "Ввод!".


*Определитесь, кто Вы:
робот инопланетянин человек

Внимание! Время в таблицах - всемирное. Для получения местного времени необходимо прибавить поправку, которая равна 3 ч.

Смотрите также архив погоды в соседних городах и на ближайших метеорологических станциях:

Погода в Туапсе (Краснодарский край, Россия) (11 км)
Погода в Лазаревском (Краснодарский край, Россия) (19 км)
Погода в Горном (Краснодарский край, Россия) (30 км)
Погода в Кичмае (Краснодарский край, Россия) (35 км)
Погода в Солох Ауле (Краснодарский край, Россия) (45 км)
Погода в Джубге (Краснодарский край, Россия) (49 км)
Погода в Горячем Ключе (Краснодарский край, Россия) (68 км)
Погода в Сочи (Краснодарский край, Россия) (69 км)
Погода в Гузерипле (Адыгея, Россия) (78 км)
Погода в Кепше (Краснодарский край, Россия) (84 км)

Пояснения к столбцам:

Ветер - указаны скорость ветра в м/с - средняя за 10 мин, порывы в срок и между сроками (в фигурных скобках) и направление, откуда дует ветер: С - северный, СВ - северо-восточный, В - восточный, ЮВ - юго-восточный, Ю - южный, ЮЗ - юго-западный, З - западный, СЗ - северо-западный.
Видимость - горизонтальная дальность видимости в метрах или километрах. При видимости от 1 до 10 км при отсутствии осадков обычно наблюдается дымка, при ухудшении видимости до 1 км и менее - туман. В сухую погоду видимость может ухудшаться дымом, пылью или мглою.
Явления - указаны атмосферные явления, наблюдавшиеся в срок или в последний час перед сроком; фигурными скобками обозначены явления, наблюдавшиеся между сроками (за 1-3 часа до срока); квадратными скобками обозначены град или гололедные отложения с указанием их диаметра в мм.
Облачность - указаны через наклонную черту общая и нижняя облачность в баллах и высота нижней границы облаков в метрах; квадратными скобками обозначены формы облаков: Ci - перистые, Cs - перисто-слоистые, Cc - перисто-кучевые, Ac - высококучевые, As - высокослоистые, Sc - слоисто-кучевые, Ns - слоисто-дождевые, Cu - кучевые, Cb - кучево-дождевые. Подробнее классификацию облаков см. в Атласе облаков (PDF).
T - Температура воздуха - температура, измеренная на высоте 2 м над землей.
Td - Температура точки росы - температура, при понижении до которой содержащийся в воздухе водяной пар достигнет насыщения.
f - Относительная влажность воздуха - влажноcть воздуха, измеренная на высоте 2 м над землей.
Te - Эффективная температура - температура, которую ощущает одетый по сезону человек в тени. Характеристика душности погоды. При расчете учитывается влияние влажности воздуха и скорости ветра на теплоощущения человека.
Tes - Эффективная температура на солнце - температура, которую ощущает человек, с поправкой на солнечный нагрев. Характеристика знойности погоды. Зависит от высоты солнца над горизонтом, облачности и скорости ветра. Ночью, в пасмурную погоду, а также при ветре 12 м/с и более поправка равна нулю.
P - Атмосферное давление - приведенное к уровню моря атмосферное давление.
Po - Атмосферное давление - измеренное на уровне метеостанции атмосферное давление.
Tmin - Минимальная температура - минимум температуры воздуха на высоте 2 м над землей.
Tmax - Максимальная температура - максимум температуры воздуха на высоте 2 м над землей.
R - Количество осадков - Количество выпавших осадков за период времени, мм. При наведении курсора мыши на число - период времени, за который выпало указанное количество осадков.
R24 - Количество осадков - Количество выпавших осадков за 24 часа, мм.
S - Снежный покров - Высота снежного покрова, см. При наведении курсора мыши на число - состояние снежного покрова и степень покрытия местности в баллах.